Погода в Орвието

Италия     42°43′04″N   12°06′13″E
темп.,
°C
ветер,
м/с
пор.,
м/с
влажн.,
%
обл.,
%
осадки,
мм/ч
давл.,
гПа
погр.,
м
13 июня, вс
вс1323:00+19сз225774 0.0 101811
02:00+17с116022 0.0 101811
05:00+16ссз11697 0.0 101811
08:00+21ссв01545 0.0 1019131
11:00+27зсз12355 0.0 10181139
14:00+30ссв12294 0.0 10172222
17:00+30з133025 0.0 10162516
20:00+23зюз23590 0.0 101766
14 июня, пн
пн1423:00+19зсз11700 0.0 101811
02:00+17ссз11720 0.0 101811
05:00+16ссз22720 0.0 101711
08:00+21ссв12660 0.0 1018192
11:00+26ссв22510 0.0 1017912
14:00+29ссв344259 0.0 10152209
17:00+25всв135782 0.0 1014119
20:00+24ссз116615 0.0 101515
15 июня, вт
вт1523:00+20ссв22760 0.0 101619
02:00+17с22770 0.0 101719
05:00+15ссв22790 0.0 101715
08:00+19св22625 0.0 1017207
11:00+25св22440 0.0 1017865
14:00+29св23345 0.0 10161683
17:00+24зюз466191 0.0 1016499
20:00+22ююз35706 0.0 1016190
16 июня, ср
ср1623:00+17юз228780 0.0 101815
02:00+16зюз1188100 0.0 101711
05:00+16ссв1189100 0.0 101711
08:00+20юв1172100 0.0 1017192
11:00+26ююз225484 0.3 10161001
14:00+28юз114493 1.2 10152093
17:00+27юз554937 0.1 1014730
20:00+20в2279100 0.6 101678
17 июня, чт
чт1723:00+17ссз0097100 0.2 101711
02:00+17всв1195100 0.2 101611
05:00+16вюв119688 0.0 101711
08:00+19вюв1283100 0.0 1017194
11:00+26ю2348100 0.0 10171194
14:00+29юз33395 0.0 10161932
17:00+28юз644014 0.0 10151306
20:00+21юз4962100 0.0 1016387